Weather History for EINN - May, 2013

Change the Weather History Date:

Saturday, May 4, 2013

  Actual Average Record
Temperature  
Mean Temperature 50 °F -  
Max Temperature 57 °F 61 °F 73 °F (2007)
Min Temperature 43 °F 46 °F 41 °F (2002)
Degree Days  
Heating Degree Days 15    
Moisture  
Dew Point 46 °F    
Average Humidity 84    
Maximum Humidity 100    
Minimum Humidity 56    
Precipitation  
Precipitation 0.00 in 0.08 in - ()
Sea Level Pressure  
Sea Level Pressure 29.95 in    
Wind  
Wind Speed 13 mph ()    
Max Wind Speed 26 mph    
Max Gust Speed -    
Visibility 5.9 miles    
Events Rain    
Averages and records for this station are not official NWS values.
T = Trace of Precipitation, MM = Missing Value Source: Averaged Metar Reports

Daily Weather History Graph

Daily Weather History Graph

Search for Another Location

Airport or City:

Trip Planner

Search our weather history database for the weather conditions in past years. The results will help you decide how hot, cold, wet, or windy it might be!

Date:

Astronomy

May. 04, 2013 Rise Set
Actual Time 5:57 AM IST 9:08 PM IST
Civil Twilight 5:17 AM IST 9:48 PM IST
Nautical Twilight 4:23 AM IST 10:43 PM IST
Astronomical Twilight 3:12 AM IST 11:56 PM IST
Moon 3:33 AM IST (5/4) 3:11 PM IST (5/4)
Length of Visible Light 16h 31m
Length of Day
15h 10m
Waning Crescent, 29% of the Moon is Illuminated
May 4
Waning Crescent
May 10
New
May 18
First Quarter
May 25
Full
May 31
Last Quarter

Hourly Weather History & Observations

Time (IST) Temp. Windchill Dew Point Humidity Pressure Visibility Wind Dir Wind Speed Gust Speed Precip Events Conditions
12:00 AM 50.0 °F - 48.2 °F 94% 29.89 in 6.2 mi SSW 10.4 mph - N/A   Mostly Cloudy
12:30 AM 50.0 °F - 48.2 °F 94% 29.86 in 5.0 mi SW 10.4 mph - N/A Rain Rain
1:00 AM 48 °F - 47 °F 96% 29.88 in 16 mi SW 11.2 mph - - Rain Light Rain
1:00 AM 48.2 °F - 46.4 °F 93% 29.86 in 6.2 mi SW 10.4 mph - N/A   Mostly Cloudy
1:30 AM 48.2 °F - 46.4 °F 93% 29.86 in 6.2 mi WSW 10.4 mph - N/A   Mostly Cloudy
2:00 AM 48.2 °F - 46.4 °F 93% 29.86 in 6.2 mi WSW 10.4 mph - N/A   Mostly Cloudy
2:30 AM 48.2 °F - 46.4 °F 93% 29.86 in 6.2 mi WSW 10.4 mph - N/A   Mostly Cloudy
3:00 AM 48.2 °F - 48.2 °F 100% 29.86 in 6.2 mi WSW 11.5 mph - N/A   Mostly Cloudy
3:30 AM 48.2 °F - 46.4 °F 93% 29.86 in 6.2 mi WSW 12.7 mph - N/A   Mostly Cloudy
4:00 AM 48.2 °F - 46.4 °F 93% 29.89 in 4.3 mi West 16.1 mph - N/A Rain Light Rain
4:30 AM 46.4 °F 39.8 °F 44.6 °F 93% 29.89 in 6.2 mi West 16.1 mph - N/A   Scattered Clouds
5:00 AM 44.6 °F 39.2 °F 42.8 °F 93% 29.92 in 6.2 mi West 10.4 mph - N/A   Partly Cloudy
5:30 AM 44.6 °F 39.2 °F 42.8 °F 93% 29.92 in 6.2 mi West 10.4 mph - N/A   Partly Cloudy
6:00 AM 42.8 °F 37.5 °F 41.0 °F 93% 29.92 in 6.2 mi WSW 9.2 mph - N/A   Partly Cloudy
6:30 AM 42.8 °F 38.6 °F 41.0 °F 93% 29.92 in 6.2 mi WSW 6.9 mph - N/A   Partly Cloudy
7:00 AM 45 °F - 43 °F 89% 29.94 in 19 mi WSW 11.2 mph - - Rain Light Rain Showers
7:00 AM 44.6 °F 39.2 °F 42.8 °F 93% 29.92 in 6.2 mi WSW 10.4 mph - N/A Rain Light Rain Showers
7:30 AM 46.4 °F 41.9 °F 42.8 °F 87% 29.95 in 6.2 mi WSW 9.2 mph - N/A   Mostly Cloudy
8:00 AM 46.4 °F 41.5 °F 42.8 °F 87% 29.95 in 6.2 mi WSW 10.4 mph - N/A   Scattered Clouds
8:30 AM 48.2 °F - 41.0 °F 76% 29.95 in 6.2 mi WSW 12.7 mph - N/A   Mostly Cloudy
9:00 AM 48.2 °F - 41.0 °F 76% 29.98 in 6.2 mi WSW 12.7 mph - N/A   Mostly Cloudy
9:30 AM 50.0 °F - 39.2 °F 66% 29.98 in 6.2 mi WSW 17.3 mph - N/A   Mostly Cloudy
10:00 AM 50.0 °F - 41.0 °F 71% 29.98 in 6.2 mi WSW 17.3 mph - N/A   Mostly Cloudy
10:30 AM 50.0 °F - 41.0 °F 71% 29.98 in 6.2 mi WSW 17.3 mph - N/A   Mostly Cloudy
11:00 AM 51.8 °F - 41.0 °F 67% 29.98 in 6.2 mi WSW 19.6 mph - N/A   Mostly Cloudy
11:30 AM 51.8 °F - 41.0 °F 67% 29.98 in 6.2 mi WSW 24.2 mph - N/A   Mostly Cloudy
12:00 PM 53.6 °F - 41.0 °F 62% 29.98 in 6.2 mi WSW 25.3 mph - N/A   Mostly Cloudy
12:30 PM 53.6 °F - 41.0 °F 62% 29.98 in 6.2 mi WSW 23.0 mph - N/A   Mostly Cloudy
1:00 PM 54 °F - 43 °F 56% 30.00 in 31 mi SW 22.4 mph - -   Partly Cloudy
1:00 PM 53.6 °F - 42.8 °F 67% 29.98 in 6.2 mi SW 21.9 mph - N/A   Scattered Clouds
1:30 PM 55.4 °F - 41.0 °F 58% 29.98 in 6.2 mi WSW 21.9 mph - N/A   Partly Cloudy
2:00 PM 57.2 °F - 44.6 °F 63% 29.98 in 6.2 mi SW 21.9 mph - N/A   Partly Cloudy
2:30 PM 57.2 °F - 42.8 °F 59% 29.98 in 6.2 mi WSW 20.7 mph - N/A   Partly Cloudy
3:00 PM 57.2 °F - 44.6 °F 63% 29.98 in 6.2 mi SW 21.9 mph - N/A   Partly Cloudy
3:30 PM 55.4 °F - 46.4 °F 72% 29.98 in 6.2 mi WSW 26.5 mph - N/A   Scattered Clouds
4:00 PM 57.2 °F - 46.4 °F 67% 29.98 in 6.2 mi WSW 20.7 mph - N/A   Mostly Cloudy
4:30 PM 57.2 °F - 48.2 °F 72% 29.98 in 6.2 mi WSW 16.1 mph - N/A   Mostly Cloudy
5:00 PM 55.4 °F - 50.0 °F 82% 29.98 in 6.2 mi SW 18.4 mph - N/A Rain Light Rain Showers
5:30 PM 55.4 °F - 51.8 °F 88% 29.98 in 6.2 mi SW 17.3 mph - N/A   Mostly Cloudy
6:00 PM 55.4 °F - 51.8 °F 88% 29.98 in 6.2 mi SW 17.3 mph - N/A Rain Light Rain Showers
6:30 PM 53.6 °F - 51.8 °F 94% 29.98 in 4.3 mi SW 15.0 mph - N/A   Light Drizzle
7:00 PM 54 °F - 52 °F 92% 29.99 in 4 mi SW 13.4 mph - - Rain Light Drizzle
7:00 PM 53.6 °F - 51.8 °F 94% 29.98 in 4.3 mi SW 13.8 mph - N/A   Light Drizzle
7:30 PM 53.6 °F - 53.6 °F 100% 29.98 in 3.1 mi SW 13.8 mph - N/A   Light Drizzle
8:00 PM 53.6 °F - 53.6 °F 100% 29.98 in 3.7 mi SW 12.7 mph - N/A   Light Drizzle
8:30 PM 53.6 °F - 53.6 °F 100% 29.98 in 5.0 mi SW 13.8 mph - N/A   Light Drizzle
9:00 PM 53.6 °F - 53.6 °F 100% 30.01 in 2.5 mi SW 12.7 mph - N/A   Light Drizzle
9:30 PM 53.6 °F - 51.8 °F 94% 30.01 in 2.8 mi SW 15.0 mph - N/A   Light Drizzle
10:00 PM 53.6 °F - 51.8 °F 94% 30.01 in 3.1 mi SSW 12.7 mph - N/A   Light Drizzle
10:30 PM 53.6 °F - 51.8 °F 94% 30.01 in 3.1 mi SSW 13.8 mph - N/A   Light Drizzle
11:00 PM 53.6 °F - 51.8 °F 94% 30.01 in 3.1 mi SSW 12.7 mph - N/A   Light Drizzle
11:30 PM 53.6 °F - 51.8 °F 94% 30.01 in 2.5 mi SSW 13.8 mph - N/A   Light Drizzle